Starlink 31115

operational
NORAD ID: 58729 Int'l Des: 2024-005 Owner: SPXS Country: US Constellation: starlink
LEOCIRCULAR

关于 Starlink 31115

正在加载描述...

实时位置

正在加载3D地球...

即将过境

高度历史

Altitude vs Time

uPlot chart will show altitude changes over time

两行轨道根数

1 58729U 24005B 25351.57271340 .00000038 00000-0 17866-4 0 9990
2 58729 43.0037 307.4303 0001021 285.4831 74.5899 15.02536129108066
Epoch: Dec 17, 2025 • Age: 10 hours

当前状态

高度 558.1 km
速度 7.59 km/s
星下点 9.54°N, 121.97°W
发射日期 Jan 7, 2024
运行时间 1.9 years
类型 internet

技术详情

分类 Payload
质量 730.00 kg
干质量 700.00 kg
总质量 730.00 kg
长度 0.30 m
直径 4.10 m
跨度 29.00 m
形状 Box + pan
制造商 SPXS
平台类型 Starlink V2M
阶段状态 In Orbit
所有者/国家 SPXS/US

大型星座

Loading constellations...